Regional Weather Roundup
Issued by NWS Sioux Falls, SD

Home | Current Version | Previous Version | Text Only | Print | Product List | Glossary Off
Versions: 1 2 3 4 5 6 7 8 9 10 11 12 13 14 15 16 17 18 19 20 21 22 23 24 25 26 27 28 29 30 31 32 33 34 35 36 37 38 39 40 41 42 43 44 45 46 47 48 49 50

000
ASUS43 KFSD 242202
RWRFSD

WEATHER ROUNDUP FOR SE SOUTH DAKOTA/SW MINNESOTA/NW IOWA
NATIONAL WEATHER SERVICE SIOUX FALLS SD
500 PM CDT THU JUL 24 2014

NOTE: "FAIR" INDICATES FEW OR NO CLOUDS BELOW 12,000 FEET WITH NO
SIGNIFICANT WEATHER AND OR OBSTRUCTIONS TO VISIBILITY.


SDZ038>040-050-052>070-242300-
SOUTHEAST SOUTH DAKOTA

CITY           SKY/WX    TMP DP  RH WIND       PRES   REMARKS
CHAMBERLAIN    SUNNY     90  70  51 SE22G31   29.75F HX  95
HURON          PTSUNNY   75  63  66 SE22G37   29.83F
MADISON        FAIR      66  63  88 SE24G32   29.93F
MITCHELL       MOSUNNY   78  66  66 SE29G38   29.87F
SIOUX FALLS    CLOUDY    71  61  70 SE24G38   29.93F
WINNER         FAIR     100  67  33 S23G30    29.70F HX 105
YANKTON        MOSUNNY   82  66  57 SE18G24   29.90R
$$

MNZ071-072-080-081-089-090-097-098-242300-
SOUTHWEST MINNESOTA

CITY           SKY/WX    TMP DP  RH WIND       PRES   REMARKS
FAIRMONT       CLOUDY    68  63  83 W7        30.16R
JACKSON        TSTM      64  61  88 SE14      30.07F
LUVERNE        TSTM      63  59  88 E17G23    29.98F
MARSHALL       CLOUDY    70  63  78 S23G29    29.93F
MONTEVIDEO     CLOUDY    73  64  73 S12G22    29.93F
PIPESTONE      CLOUDY    64  61  88 SE18G25   29.97F
REDWOOD FALLS  CLOUDY    70  65  84 S14G26    29.95R
TRACY          CLOUDY    67  64  91 S12       29.98F
WINDOM         CLOUDY    64  63  94 SE13      29.98F
WORTHINGTON    CLOUDY    61  57  88 S17G24    30.01F
$$

IAZ001>003-012>014-020>022-031-032-NEZ013-014-SDZ071-242300-
NORTHWEST IOWA

CITY           SKY/WX    TMP DP  RH WIND       PRES   REMARKS
CHEROKEE       CLOUDY    71  64  77 SE9       30.04F
DENISON        PTSUNNY   73  63  68 SE7G17    30.00R
ESTHERVILLE    RAIN      65  63  93 NW5       30.14R FOG
LE MARS        PTSUNNY   77  64  65 E10G18    30.02R
ORANGE CITY    PTSUNNY   72  61  68 E16G22    30.08R
SHELDON        RAIN      63  59  88 E13G22    30.08R
SIOUX CITY     PTSUNNY   77  64  64 SE15G23   29.95R
SPENCER        TSTM      63  60  90 NE5       30.13R FOG
STORM LAKE     CLOUDY    70  64  83 SE13G18   30.04F
$$

ABBREVIATIONS USED IN REMARKS
   TC - TEMPERATURE IN CELSIUS
  WCI - WIND CHILL INDEX
   HX - HEAT INDEX
  VSB - VISIBILITY




USA.gov is the U.S. government's official web portal to all federal, state and local government web resources and services.